Tracking 19969 objects as of 12-Nov-2019
Live streaming from Space Station
objects crossing your sky now
Track the group of recently launched Starlink satellites

NOAA 16 DEB

Track NOAA 16 DEB now!
10-day predictions


NORAD ID: 41531
Int'l Code: 2000-055NF
Perigee: 853.1 km
Apogee: 904.8 km
Inclination: 98.8 °
Period: 102.4 minutes
Semi major axis: 7249 km
RCS: Unknown
Launch date: September 21, 2000
Source: United States (US)
Launch site: AIR FORCE WESTERN TEST RANGE (AFWTR)

Note: This is SATELLITE DEBRIS
aabbcc
Your satellite tracking list
Your tracking list is empty




NASA's NSSDC Master Catalog

Two Line Element Set (TLE):
1 41531U 00055NF  19313.40265513 +.00000523 +00000-0 +34093-3 0  9999
2 41531 098.8225 009.1867 0035641 213.4389 146.4529 14.06362920183174
Source of the keplerian elements: AFSPC